Home   Weather   Campeche   Past weeks
Flag for Mexico

Past Weather in Campeche, Campeche, Mexico — Yesterday and Last 2 Weeks

Now
77 °F

Passing clouds.


Feels Like: 79 °F
Forecast: 85 / 71 °F
Wind: 12 mph from North

Location: Campeche

Current Time: Mar 20, 2019 at 9:56:23 am

Latest Report: Mar 20, 2019 at 8:43 am


Visibility: 7 mi

Pressure: 30.04 "Hg

Humidity: 69%

Dew Point: 66 °F

Location of CampecheLocation

Past Weather in Campeche — Graph

°F

Campeche Temperature Yesterday

Maximum temperature yesterday: 84 °F (at 11:49 am)
Minimum temperature yesterday: 70 °F (at 1:42 am)
Average temperature yesterday: 76 °F

High & Low Weather Summary for the Past Weeks

 TemperatureHumidityPressure
High99 °F (Mar 14, 3:52 pm)100% (Mar 17, 9:44 pm)30.21 "Hg (Mar 17, 9:44 pm)
Low64 °F (Mar 20, 4:08 am)28% (Mar 8, 3:45 pm)29.70 "Hg (Mar 13, 2:51 pm)
Average81 °F68%29.97 "Hg
* Reported Mar 5 8:42 am — Mar 20 8:43 am, Campeche. Weather by CustomWeather, © 2019

Note: Actual official high and low records may vary slightly from our data, if they occured in-between our weather recording intervals... More about our weather records

Advertising

Campeche Weather History for the Previous 24 Hours

Scroll right to see more
 ConditionsComfort  
Time TempWeatherWind HumidityBarometerVisibility
8:43 am
Wed, Mar 20
77 °FPassing clouds.12 mph69%30.04 "Hg7 mi
7:42 am73 °FSunny.7 mph78%30.06 "Hg7 mi
6:45 am64 °FSunny.No wind100%30.04 "Hg7 mi
5:40 am64 °FClear.No wind94%29.98 "Hg7 mi
4:41 am64 °FClear.No wind94%30.01 "Hg7 mi
4:08 am64 °FClear.No wind94%30.01 "Hg7 mi
12:46 am72 °FClear.8 mph83%30.03 "Hg7 mi
11:51 pm
Tue, Mar 19
73 °FClear.12 mph78%30.04 "Hg7 mi
10:41 pm73 °FClear.12 mph74%30.04 "Hg7 mi
9:45 pm75 °FClear.9 mph74%30.04 "Hg7 mi
8:42 pm77 °FPassing clouds.6 mph69%30.02 "Hg7 mi
7:46 pm75 °FPassing clouds.No wind78%29.99 "Hg7 mi
6:47 pm77 °FPassing clouds.12 mph69%29.97 "Hg7 mi
5:47 pm79 °FScattered clouds.12 mph74%29.93 "Hg7 mi
4:43 pm79 °FScattered clouds.12 mph79%29.96 "Hg7 mi
3:42 pm81 °FBroken clouds.12 mph70%29.95 "Hg7 mi
2:48 pm82 °FPartly sunny.12 mph66%29.91 "Hg7 mi
1:47 pm84 °FBroken clouds.12 mph62%29.95 "Hg7 mi
12:42 pm84 °FBroken clouds.16 mph62%29.97 "Hg7 mi
11:49 am84 °FBroken clouds.14 mph62%29.97 "Hg7 mi
10:47 am81 °FBroken clouds.9 mph66%30.02 "Hg7 mi
9:47 am81 °FBroken clouds.7 mph70%30.02 "Hg7 mi
Weather by CustomWeather, © 2019

See weather overview